(329272) = 1999 TP178 = 2005 JD96 = 2006 VY4

Discovered at Socorro on 1999-10-10 by LINEAR.

Orbit

Orbit type: Main Belt

Note: WebGL enabled browser required.

epoch2022-01-21.0
epoch JD2459600.5
perihelion date2020-10-04.79374
perihelion JD2459127.29374
argument of perihelion (°)156.53159
ascending node (°)225.14529
inclination (°)5.59943
eccentricity0.1445092
perihelion distance (AU)1.9720113
Tisserand w.r.t. Jupiter3.6
ΔV w.r.t. Earth (km/sec)8.9
semimajor axis (AU)2.3051227
mean anomaly (°)133.26413
mean daily motion (°/day)0.28161950
aphelion distance (AU)2.638
period (years)3.5
P-vector [x]0.92793458
P-vector [y]0.32466499
P-vector [z]0.18311217
Q-vector [x]-0.36626907
Q-vector [y]0.88536868
Q-vector [z]0.28630277
absolute magnitude17.59
phase slope0.15
uncertainty0
referenceMPO 697702
observations used348
oppositions13
arc length (days)8228
first opposition used1999
last opposition used2022
residual rms (arc-secs)0.81
perturbers coarse indicatorM-v
perturbers precise indicator003Ek
first observation date used1999-10-10.0
last observation date used2022-04-20.0
computer namePan
JD of orbit computation2456670.875880
perihelion JD uncertainty (days)6.1074E-05
argument of perihelion uncertainty (°)4.8806E-05
ascending node uncertainty (°)4.4099E-05
inclination uncertainty (°)1.0154E-05
eccentricity uncertainty 1.0411E-07
perihelion distance uncertainty (AU)2.3994E-07
Minimum Orbit Intersection Distances (in AU)
for orbit epoch: 2459200.5, reference: E2021-B25
Mercury1.63287
Venus1.25117
Earth0.97533
Mars0.52891
Jupiter2.81422
Saturn6.82798
Uranus15.7485
Neptune27.9211

Observations

349 total observations over interval: 1999 10 10.28619 – 2022 05 29.183484
These data are available for download (format description).

Date (UT) J2000 RA J2000 Dec Magn Location Ref
1999 10 10.28619 01 41 40.27 +15 11 13.9 19.3   704 – Lincoln Laboratory ETS, New Mexico MPS 13883
1999 10 10.30183 01 41 39.49 +15 11 06.2 19.7   704 – Lincoln Laboratory ETS, New Mexico MPS 13883
1999 10 10.31675 01 41 38.78 +15 10 57.9 20.1   704 – Lincoln Laboratory ETS, New Mexico MPS 13883
1999 10 10.33194 01 41 37.96 +15 10 51.8 19.9   704 – Lincoln Laboratory ETS, New Mexico MPS 13883
1999 10 11.32104 01 40 50.75 +15 02 34.5 18.8 V 691 – Steward Observatory, Kitt Peak-Spacewatch MPS 27586
1999 10 11.34306 01 40 49.63 +15 02 24.0 18.9 V 691 – Steward Observatory, Kitt Peak-Spacewatch MPS 27586
1999 10 11.37396 01 40 48.03 +15 02 08.3 19.0 V 691 – Steward Observatory, Kitt Peak-Spacewatch MPS 27586
1999 10 13.356180 01 39 11.294 +14 45 04.64 19.52 V 645 – Apache Point-Sloan Digital Sky Survey MPS 79609
1999 10 13.359652 01 39 11.111 +14 45 02.79 20.47   645 – Apache Point-Sloan Digital Sky Survey MPS 79609
1999 10 15.25201 01 37 37.20 +14 28 13.9 19.8   704 – Lincoln Laboratory ETS, New Mexico MPS 13883
1999 10 15.26784 01 37 36.50 +14 28 05.2 20.3   704 – Lincoln Laboratory ETS, New Mexico MPS 13883
1999 10 15.28375 01 37 35.59 +14 27 56.1 19.7   704 – Lincoln Laboratory ETS, New Mexico MPS 13883
1999 10 15.30032 01 37 34.70 +14 27 47.5 19.5   704 – Lincoln Laboratory ETS, New Mexico MPS 13883
1999 10 15.31622 01 37 33.91 +14 27 39.4 20.2   704 – Lincoln Laboratory ETS, New Mexico MPS 13883
2004 01 19.18792 07 57 54.40 +11 08 37.6 21.0 V 691 – Steward Observatory, Kitt Peak-Spacewatch MPS 191751
2004 01 19.19235 07 57 54.09 +11 08 38.3 20.9 V 691 – Steward Observatory, Kitt Peak-Spacewatch MPS 191751
2004 01 19.19655 07 57 53.80 +11 08 38.9 20.9 V 691 – Steward Observatory, Kitt Peak-Spacewatch MPS 191751
2005 05 08.24375 15 03 09.99 -16 49 55.7 20.5 V 691 – Steward Observatory, Kitt Peak-Spacewatch MPS 134963
2005 05 08.26131 15 03 08.97 -16 49 48.5 20.9 V 691 – Steward Observatory, Kitt Peak-Spacewatch MPS 134963
2005 05 08.27885 15 03 07.88 -16 49 41.8 20.8 V 691 – Steward Observatory, Kitt Peak-Spacewatch MPS 134963
2005 05 13.29814 14 58 09.47 -16 17 48.0 20.0 R G96 – Mt. Lemmon Survey MPS 191751
2005 05 13.30550 14 58 09.04 -16 17 44.7 19.7 R G96 – Mt. Lemmon Survey MPS 191751
2005 05 13.31293 14 58 08.58 -16 17 41.8 20.2 R G96 – Mt. Lemmon Survey MPS 191751
2005 05 13.32031 14 58 08.15 -16 17 39.7 20.3 R G96 – Mt. Lemmon Survey MPS 191751
2006 10 02.32274 01 48 47.56 +16 14 30.2   691 – Steward Observatory, Kitt Peak-Spacewatch MPS 191751
2006 10 02.34005 01 48 46.85 +16 14 23.4   691 – Steward Observatory, Kitt Peak-Spacewatch MPS 191751
2006 10 02.35737 01 48 46.12 +16 14 16.5   691 – Steward Observatory, Kitt Peak-Spacewatch MPS 191751
2006 10 17.16379 01 37 26.09 +14 14 52.6 19.8 V 691 – Steward Observatory, Kitt Peak-Spacewatch MPS 191751
2006 10 17.18110 01 37 25.11 +14 14 42.7 19.6 V 691 – Steward Observatory, Kitt Peak-Spacewatch MPS 191751
2006 10 17.19848 01 37 24.25 +14 14 33.7 19.8 V 691 – Steward Observatory, Kitt Peak-Spacewatch MPS 191751
2006 11 09.18439 01 20 35.56 +10 42 52.5 19.5 R 644 – Palomar Mountain/NEAT MPS 190654
2006 11 09.20506 01 20 34.88 +10 42 42.6 19.3 R 644 – Palomar Mountain/NEAT MPS 190654
2006 11 09.22566 01 20 34.22 +10 42 32.1 19.7 R 644 – Palomar Mountain/NEAT MPS 190654
2006 11 10.08496 01 20 09.49 +10 35 39.1 20.3 V 691 – Steward Observatory, Kitt Peak-Spacewatch MPS 187220
2006 11 10.10288 01 20 08.94 +10 35 30.6 20.1 V 691 – Steward Observatory, Kitt Peak-Spacewatch MPS 187220
2006 11 10.12079 01 20 08.40 +10 35 22.2 20.0 V 691 – Steward Observatory, Kitt Peak-Spacewatch MPS 187220
2006 11 11.22728 01 19 37.70 +10 26 43.1 19.1 V G96 – Mt. Lemmon Survey MPS 187220
2006 11 11.23219 01 19 37.59 +10 26 40.7 19.2 V G96 – Mt. Lemmon Survey MPS 187220
2006 11 11.23707 01 19 37.45 +10 26 38.5 19.2 V G96 – Mt. Lemmon Survey MPS 187220
2006 11 11.24193 01 19 37.30 +10 26 36.2 19.3 V G96 – Mt. Lemmon Survey MPS 187220
2006 11 16.07709 01 17 51.37 +09 51 44.6 20.4 V 691 – Steward Observatory, Kitt Peak-Spacewatch MPS 187220
2006 11 16.09281 01 17 51.06 +09 51 38.4 20.3 V 691 – Steward Observatory, Kitt Peak-Spacewatch MPS 187220
2006 11 16.10854 01 17 50.74 +09 51 32.2 20.3 V 691 – Steward Observatory, Kitt Peak-Spacewatch MPS 187220
2006 11 18.07037 01 17 20.45 +09 38 53.6 20.2 V 691 – Steward Observatory, Kitt Peak-Spacewatch MPS 188861
2006 11 18.08581 01 17 20.21 +09 38 47.9 20.3 V 691 – Steward Observatory, Kitt Peak-Spacewatch MPS 188861
2006 11 18.10131 01 17 19.97 +09 38 42.2 20.2 V 691 – Steward Observatory, Kitt Peak-Spacewatch MPS 188861
2006 12 13.18492 01 22 05.19 +08 21 48.5 20.4 V G96 – Mt. Lemmon Survey MPS 192394
2006 12 13.21277 01 22 06.09 +08 21 48.8 20.3 V G96 – Mt. Lemmon Survey MPS 192394
2006 12 13.22060 01 22 06.34 +08 21 48.9 20.4 V G96 – Mt. Lemmon Survey MPS 192394
2006 12 13.22721 01 22 06.56 +08 21 48.9 21.1 V G96 – Mt. Lemmon Survey MPS 192394
2006 12 16.19934 01 23 58.30 +08 22 47.8 20.9 V G96 – Mt. Lemmon Survey MPS 191751
2006 12 16.20433 01 23 58.52 +08 22 47.2 21.0 V G96 – Mt. Lemmon Survey MPS 191751
2006 12 16.20919 01 23 58.66 +08 22 47.7 20.7 V G96 – Mt. Lemmon Survey MPS 191751
2006 12 16.21404 01 23 58.88 +08 22 48.2 20.8 V G96 – Mt. Lemmon Survey MPS 191751
2008 03 11.35926 11 49 10.66 -06 14 03.5 21.0 V G96 – Mt. Lemmon Survey MPS 241949
2008 03 11.35979 11 49 10.66 -06 14 03.1 20.8 V G96 – Mt. Lemmon Survey MPS 241949
2008 03 11.36873 11 49 10.12 -06 13 59.5 21.1 V G96 – Mt. Lemmon Survey MPS 241950
2008 03 11.36927 11 49 10.09 -06 13 59.4 21.0 V G96 – Mt. Lemmon Survey MPS 241950
2008 03 11.37822 11 49 09.58 -06 13 55.4 20.8 V G96 – Mt. Lemmon Survey MPS 241950
2008 03 11.37876 11 49 09.55 -06 13 55.3 21.2 V G96 – Mt. Lemmon Survey MPS 241950
2008 03 11.38770 11 49 09.04 -06 13 51.5 20.3 V G96 – Mt. Lemmon Survey MPS 241950
2008 03 11.38824 11 49 09.04 -06 13 51.6 21.0 V G96 – Mt. Lemmon Survey MPS 241950
2011 01 13.31826 08 05 59.02 +10 48 02.2 20.5 V G96 – Mt. Lemmon Survey MPS 365358
2011 01 13.32521 08 05 58.59 +10 48 02.7 20.4 V G96 – Mt. Lemmon Survey MPS 365358
2011 01 13.33921 08 05 57.66 +10 48 04.5 20.1 V G96 – Mt. Lemmon Survey MPS 365358
2012 05 12.28812 15 00 28.62 -16 26 21.3 20.7 V G96 – Mt. Lemmon Survey MPS 423916
2012 05 12.29556 15 00 28.11 -16 26 18.3 20.6 V G96 – Mt. Lemmon Survey MPS 423916
2012 05 12.30303 15 00 27.68 -16 26 15.8 21.2 V G96 – Mt. Lemmon Survey MPS 423916
2012 05 12.31051 15 00 27.21 -16 26 12.6 20.7 V G96 – Mt. Lemmon Survey MPS 423916
2012 05 14.29272 14 58 30.43 -16 13 38.8 21.6 V G96 – Mt. Lemmon Survey MPS 423916
2012 05 14.29856 14 58 30.03 -16 13 36.6 20.5 V G96 – Mt. Lemmon Survey MPS 423916
2012 05 14.30447 14 58 29.67 -16 13 34.2 20.6 V G96 – Mt. Lemmon Survey MPS 423916
2012 05 14.31034 14 58 29.35 -16 13 31.3 20.9 V G96 – Mt. Lemmon Survey MPS 423916
2013 09 26.39516 01 55 01.66 +16 58 01.2 19.7 V 703 – Catalina Sky Survey MPS 478672
2013 09 26.40073 01 55 01.41 +16 58 00.8 20.1 V 703 – Catalina Sky Survey MPS 478672
2013 09 26.40632 01 55 01.32 +16 57 59.8 19.9 V 703 – Catalina Sky Survey MPS 478672
2013 09 26.41192 01 55 01.16 +16 57 58.0 20.4 V 703 – Catalina Sky Survey MPS 478672
2013 09 29.63960 01 53 21.96 +16 40 20.7 19.4 R D29 – Purple Mountain Observatory, XuYi Station MPS 487067
2013 09 29.65551 01 53 21.38 +16 40 15.2 19.7 R D29 – Purple Mountain Observatory, XuYi Station MPS 487067
2013 09 29.67141 01 53 20.82 +16 40 09.6 19.5 R D29 – Purple Mountain Observatory, XuYi Station MPS 487067
2013 10 01.27797 01 52 24.71 +16 30 25.2 19.8 V 691 – Steward Observatory, Kitt Peak-Spacewatch MPS 479952
2013 10 01.29964 01 52 23.85 +16 30 17.2 19.7 V 691 – Steward Observatory, Kitt Peak-Spacewatch MPS 479952
2013 10 01.31810 01 52 23.14 +16 30 10.4 19.8 V 691 – Steward Observatory, Kitt Peak-Spacewatch MPS 479952
2013 10 03.19414 01 51 12.73 +16 17 58.0 19.8 V 691 – Steward Observatory, Kitt Peak-Spacewatch MPS 479952
2013 10 03.21236 01 51 11.97 +16 17 50.8 19.9 V 691 – Steward Observatory, Kitt Peak-Spacewatch MPS 479952
2013 10 03.23057 01 51 11.25 +16 17 43.1 20.7 V 691 – Steward Observatory, Kitt Peak-Spacewatch MPS 479952
